SCP
1 1 1 1 1 1 0 0 0 0 0 0 0 0 0 0 0 0 0 0 1 1 0 0 0 0 0 0 0 0 0 0 0 0 0 0 0 0 0 0 0 0 0
1 1 1 1 1 1 1 0 0 0 0 0 0 0 0 0 0 0 1 1 1 1 1 0 0 0 0 0 0 0 0 0 0 0 0 0 0 0 0 0 0 0 0
1 1 1 1 1 1 1 0 0 0 0 0 0 0 0 0 0 0 1 1 1 1 1 1 1 0 0 0 0 0 1 1 1 1 0 0 0 0 0 0 0 0 0
2 1 1 1 1 1 1 0 0 0 0 0 0 0 0 0 0 0 1 1 1 1 1 1 1 1 1 1 1 1 1 1 1 1 1 0 0 0 0 0 0 0 0
2 1 1 1 1 1 1 0 0 0 0 0 0 0 0 1 1 1 1 1 1 1 1 1 1 1 1 1 1 1 1 1 1 1 1 1 1 1 0 0 0 0 0
2 1 1 2 1 1 1 1 1 0 0 0 0 0 0 1 1 1 1 1 1 1 1 1 1 1 1 1 1 1 2 2 2 1 1 1 1 1 1 1 0 0 0
2 2 2 2 2 1 1 1 1 1 1 1 0 0 0 1 1 1 1 1 1 1 1 1 1 1 1 1 1 1 2 2 2 2 1 1 1 1 1 1 1 0 0
2 2 2 2 2 2 2 1 1 1 1 1 1 1 1 1 1 1 1 2 2 1 1 1 1 2 2 2 1 1 2 2 2 2 1 1 1 1 1 1 1 1 1
2 2 2 2 2 2 2 2 2 2 1 1 1 1 1 1 1 1 2 2 1 1 1 1 1 1 2 2 2 1 1 1 1 1 1 1 1 1 1 1 1 1 0
2 2 2 2 2 2 2 2 2 2 2 1 1 1 1 1 1 1 1 1 1 1 1 1 1 1 1 1 1 1 1 1 1 1 1 1 1 1 1 1 1 1 1
3 3 3 3 3 3 3 3 3 2 2 2 2 2 1 1 1 1 1 1 1 1 1 1 1 1 1 1 1 1 1 1 1 1 1 1 1 1 1 1 1 1 1
3 3 3 3 3 3 4 4 4 3 3 2 2 2 2 1 1 1 1 1 1 1 1 1 1 1 1 1 1 1 1 1 1 1 1 1 1 1 1 1 1 1 1
3 3 3 3 3 3 4 4 4 3 3 3 3 2 2 1 1 1 1 1 1 1 1 2 2 2 1 1 1 1 1 1 1 1 1 1 1 1 1 1 1 1 1
3 3 3 3 3 3 3 4 4 3 3 3 2 2 1 1 1 1 1 1 1 1 1 2 2 1 1 1 1 1 1 1 1 0 0 0 0 0 1 1 1 1 1
3 3 3 3 3 3 3 3 3 3 2 2 2 1 1 1 1 1 1 1 1 1 1 2 1 2 2 2 2 2 2 1 0 0 0 0 0 0 0 0 0 1 1
3 3 3 3 3 3 3 3 3 2 2 2 1 1 1 2 2 2 2 2 2 2 1 1 1 2 2 2 2 2 2 1 1 0 0 0 0 0 0 0 0 0 0
4 4 3 3 3 3 2 2 2 2 2 1 1 1 2 2 2 2 2 2 2 2 1 1 1 2 2 2 2 3 2 2 1 0 0 0 0 0 0 0 0 0 0
4 4 3 3 3 2 2 2 2 2 2 2 2 2 2 2 2 3 3 3 3 2 1 1 2 2 2 3 3 3 3 3 2 1 0 0 0 0 0 0 0 0 0
4 4 4 3 3 3 3 3 3 2 2 2 2 2 2 2 2 3 3 3 3 2 1 1 2 2 2 3 4 4 3 3 2 1 0 0 0 0 0 0 0 0 0
3 4 4 3 3 3 3 3 3 3 3 3 2 2 2 2 2 2 3 3 3 3 2 1 1 1 2 3 4 4 3 2 1 1 1 1 0 0 0 0 0 0 0
3 4 4 4 4 3 3 2 2 2 3 3 3 2 2 2 2 2 2 3 3 3 2 2 2 2 2 3 4 3 2 1 1 1 1 1 1 0 0 0 0 0 0
3 4 4 4 4 3 2 1 1 2 2 2 2 2 2 2 1 1 1 1 2 2 2 2 2 2 2 3 3 2 2 1 1 1 1 1 1 1 1 0 0 0 0
4 4 4 4 4 3 1 1 1 1 2 2 2 2 2 1 1 1 1 1 1 1 1 1 1 2 2 2 2 2 2 1 1 1 1 1 1 1 0 0 0 0 0
4 4 4 4 3 2 1 1 1 1 1 2 2 2 2 2 1 1 1 2 2 2 1 1 1 1 1 2 2 2 1 1 1 0 0 0 0 0 0 0 0 0 0
3 3 3 3 3 2 1 1 1 1 1 2 2 2 2 2 1 1 1 2 2 2 1 1 1 1 1 1 1 1 1 1 0 0 0 0 0 0 0 0 0 0 0
3 3 3 3 3 2 2 1 1 1 2 2 2 2 2 1 1 1 1 2 2 1 1 1 0 0 0 0 0 1 1 0 0 0 0 0 0 0 0 0 0 0 0
Wind_Speed
3 3 2 2 2 3 3 2 2 2 2 2 2 2 2 2 5 6 6 11 11 10 10 10 9 9 8 8 8 8 7 7 6 6 6 5 5 5 4 4 3 3 2
4 3 3 2 2 2 2 2 4 2 1 1 1 2 2 3 4 6 7 8 10 10 10 10 10 9 9 8 8 8 7 7 7 6 6 5 5 5 4 4 3 3 3
4 3 3 3 2 3 3 1 3 3 3 3 2 2 2 2 3 5 7 6 7 9 10 10 10 10 9 9 8 8 8 7 7 6 6 6 5 5 4 4 3 3 3
4 3 3 3 3 3 3 2 2 2 2 2 2 2 2 2 3 4 5 6 6 6 9 11 11 10 10 10 9 9 8 8 7 7 7 6 6 5 5 4 4 3 3
5 3 2 2 3 2 2 3 3 2 2 2 2 2 3 3 3 4 4 5 6 6 6 10 12 11 11 10 10 9 9 9 8 8 8 7 7 6 5 5 4 4 4
4 3 3 3 3 2 2 1 2 1 1 1 1 1 2 3 3 3 4 4 4 6 7 8 7 8 11 11 10 10 10 9 9 9 8 8 8 7 6 5 5 4 4
4 3 2 4 2 2 2 3 2 3 2 2 1 1 1 2 3 3 3 3 4 5 6 8 6 5 6 11 11 10 10 10 9 9 9 8 8 7 7 6 5 4 4
4 5 3 3 3 2 2 2 2 1 2 3 2 1 1 1 1 3 3 4 4 4 5 8 7 6 5 5 7 11 11 10 10 9 9 8 8 7 7 6 6 5 4
5 4 5 3 3 4 4 4 4 3 2 2 2 2 2 2 1 1 2 3 4 3 3 4 6 6 6 5 5 9 11 10 9 9 8 8 7 7 7 6 6 6 5
5 4 4 4 3 3 4 5 5 4 3 3 2 2 2 2 2 1 1 2 4 4 3 4 4 5 5 4 5 8 9 8 8 7 7 7 7 7 6 6 5 5 5
5 5 5 4 4 3 3 4 3 4 3 3 2 2 3 3 3 3 2 2 1 2 3 2 2 3 4 4 4 7 9 9 8 7 6 6 6 6 6 6 5 5 5
4 6 6 5 4 4 4 3 3 4 3 3 3 3 2 2 3 3 3 3 2 2 2 2 2 3 3 3 5 9 10 9 8 7 6 6 6 6 6 7 6 6 6
4 5 5 4 4 4 4 4 4 4 4 4 4 3 3 3 2 2 2 3 3 2 2 2 2 2 3 3 4 9 9 9 8 8 8 8 8 8 8 8 7 7 7
4 5 5 5 5 5 5 4 4 5 4 4 5 4 3 3 2 2 2 3 2 2 2 2 2 2 3 4 5 8 6 10 10 10 10 10 9 9 9 9 9 8 8
4 5 5 5 4 5 4 4 4 4 3 4 4 4 3 3 3 2 2 3 3 3 2 2 2 3 4 4 6 5 5 9 11 10 10 10 10 11 10 10 10 9 9
3 3 4 4 4 4 4 4 3 3 3 3 3 3 3 3 2 2 3 2 2 3 3 2 2 3 4 6 7 5 6 11 11 11 10 10 10 10 10 10 10 9 9
3 3 4 4 4 4 4 4 4 3 4 4 4 4 4 3 3 2 2 2 2 2 3 2 2 3 4 6 5 5 6 6 6 10 11 11 10 10 10 9 9 8 8
3 3 4 4 4 4 3 4 5 4 4 4 4 3 3 3 3 3 2 3 2 2 4 5 3 3 4 5 6 5 6 6 5 9 11 11 10 10 9 9 8 8 7
3 3 3 3 3 3 3 3 3 3 3 3 3 3 3 3 3 3 3 3 2 3 3 5 4 3 3 4 5 5 5 4 6 8 9 10 10 10 9 9 8 7 7
2 2 2 2 2 2 2 2 2 2 2 1 1 2 2 3 3 3 3 3 2 3 4 4 4 4 4 4 5 5 4 3 4 5 6 7 9 9 9 8 8 7 7
2 2 2 2 1 2 1 1 2 2 2 1 1 1 1 1 0 1 2 2 3 3 4 5 5 4 4 5 5 4 5 4 3 3 3 4 5 4 5 6 7 7 6
2 2 2 1 1 0 2 1 0 1 1 1 1 1 1 1 2 3 4 3 3 4 4 4 4 6 6 5 5 5 5 5 3 3 3 3 4 4 3 3 7 8 7
2 2 1 2 2 2 2 3 2 0 0 1 1 1 1 1 2 3 4 4 3 2 3 3 4 5 6 6 6 6 5 3 3 4 4 3 3 3 3 5 10 9 8
2 2 2 2 2 3 3 3 2 0 1 1 1 1 1 1 1 3 4 4 4 3 2 2 3 3 4 4 5 5 6 4 3 2 3 3 3 3 4 4 9 9 8
2 2 2 2 3 3 4 3 2 1 2 1 1 2 2 3 5 4 4 4 4 3 7 8 7 7 8 8 6 5 5 5 3 3 2 2 3 3 3 3 6 10 9
2 2 2 2 3 3 3 2 1 1 2 1 2 3 5 4 4 4 3 4 4 3 4 5 6 6 6 7 6 4 4 5 4 3 3 2 2 3 3 3 4 5 6
Wind_Direction
141 130 139 148 164 147 160 180 153 143 158 150 158 140 120 106 117 122 135 152 152 154 158 160 159 159 158 160 161 161 162 161 158 158 160 160 159 162 159 159 159 158 154
135 142 144 168 171 153 156 163 144 151 192 160 147 133 146 127 120 132 142 154 160 162 166 168 169 168 168 170 173 174 176 175 173 176 177 178 179 181 182 185 190 186 178
140 148 147 181 170 147 138 152 151 160 193 176 166 174 167 145 145 140 147 156 165 173 177 177 177 178 178 183 185 187 187 186 186 188 191 192 194 196 198 201 207 205 198
155 161 168 182 161 161 163 167 182 176 180 176 174 187 158 151 155 164 167 166 167 173 182 185 184 186 189 194 195 196 197 195 195 197 200 199 199 201 204 207 205 199 194
167 171 181 141 170 173 175 189 161 167 174 195 194 180 170 172 173 188 184 175 170 165 171 184 188 189 195 201 203 203 202 202 200 203 204 202 204 204 205 207 210 209 206
175 184 176 170 201 181 166 152 130 152 165 206 238 169 195 178 181 189 188 182 175 176 174 171 180 194 202 206 208 208 207 205 203 202 204 206 208 204 203 205 210 213 211
175 195 211 162 198 183 174 173 169 182 209 199 180 177 243 204 183 182 188 181 188 189 169 164 178 184 195 208 209 206 208 209 206 205 205 208 210 207 204 205 205 206 206
191 196 205 192 185 178 187 195 188 205 219 200 186 174 202 287 262 210 183 183 191 185 180 174 176 178 183 180 199 205 209 212 210 206 206 209 209 207 202 200 195 192 198
201 215 187 208 186 189 188 197 198 208 225 225 205 180 180 204 214 259 204 185 177 178 184 171 180 181 183 174 179 198 202 201 203 203 201 200 199 197 197 197 197 194 196
203 206 201 205 206 215 186 199 199 204 213 232 228 227 213 165 168 200 250 201 186 189 185 189 184 169 170 159 156 165 180 185 192 195 195 192 191 190 187 185 184 181 175
207 212 206 200 204 223 215 216 179 199 213 229 233 227 224 200 202 184 204 217 187 187 186 191 157 147 155 158 157 160 168 173 176 178 180 178 176 170 165 158 150 150 147
208 214 212 197 207 216 220 209 191 205 219 229 250 254 228 219 210 199 196 193 194 202 170 143 141 136 143 146 157 153 158 160 160 160 157 153 149 145 139 137 133 130 128
206 207 210 193 208 213 220 207 196 219 221 223 237 251 252 250 226 210 184 191 194 189 158 149 137 128 138 126 125 138 142 145 144 139 133 129 125 122 118 115 115 115 112
217 197 197 198 207 213 220 210 213 215 215 218 234 241 252 258 240 215 199 186 194 196 166 155 115 116 112 114 127 133 134 138 136 133 129 124 120 117 114 112 107 103 102
218 195 191 196 210 217 222 207 222 224 207 215 231 230 233 248 237 229 216 193 188 198 196 170 143 135 121 112 129 128 127 132 132 130 127 125 120 117 113 111 108 104 101
225 190 187 199 208 211 216 219 229 220 211 222 230 230 229 254 263 235 223 217 200 188 186 151 134 136 130 126 130 124 122 127 128 128 126 125 124 123 120 117 113 108 104
199 201 200 209 213 213 214 211 230 226 215 217 229 225 220 237 254 256 230 208 202 175 158 133 115 119 119 123 125 124 124 121 124 128 129 128 126 124 121 120 117 114 108
203 208 208 210 217 211 211 210 225 226 220 221 228 230 229 233 234 249 245 228 214 183 158 152 151 150 133 132 131 132 132 131 125 130 132 131 129 128 127 127 123 118 114
206 208 203 205 217 214 215 216 222 237 235 233 230 225 230 233 240 235 230 229 209 190 158 155 157 152 142 138 129 126 119 119 128 131 132 133 135 135 136 134 130 128 123
198 199 199 203 219 218 211 210 222 231 233 253 261 246 240 235 239 231 224 213 196 169 154 151 151 154 151 148 144 144 138 140 137 138 135 137 140 141 142 140 140 137 133
204 181 192 204 212 210 202 204 214 207 188 204 261 275 251 182 235 236 226 194 173 164 162 163 163 159 163 165 168 166 156 147 128 135 137 150 145 143 147 147 145 143 136
186 173 172 160 146 113 76 80 30 159 166 180 199 231 208 128 94 102 103 111 137 167 174 176 177 173 173 171 163 163 158 159 161 167 155 164 153 153 156 151 155 154 154
165 160 146 132 121 94 77 78 48 339 157 178 203 230 235 130 113 114 102 96 90 110 163 182 177 173 168 173 168 167 167 165 160 162 152 159 155 159 165 156 160 164 169
155 146 137 136 128 102 89 85 52 129 125 70 57 92 121 128 104 110 110 97 77 58 87 130 147 155 150 155 165 160 155 135 112 136 144 155 165 162 144 144 168 174 182
158 158 144 140 127 106 85 75 44 128 115 101 84 64 82 88 84 103 117 118 107 86 70 81 92 102 107 113 123 138 152 152 150 161 174 159 159 146 145 162 182 190 196
171 162 135 128 123 113 97 81 48 181 142 123 94 82 73 94 103 107 130 137 134 129 117 103 99 105 115 122 126 140 156 163 150 155 170 167 157 148 156 175 178 186 205